Blackpool, United Kingdom

6:58 AM BST on August 21, 2017 (GMT +0100)
Blackpool

Weather History for EGNH - August, 2013

Change the Weather History Date:

Friday, August 23, 2013

  Actual Average Record
Temperature  
Mean Temperature 64 °F -  
Max Temperature 71 °F 62 °F 77 °F (2015)
Min Temperature 58 °F 52 °F 50 °F (2014)
Growing Degree Days 14 (Base 50)    
Moisture  
Dew Point 61 °F    
Average Humidity 81    
Maximum Humidity 100    
Minimum Humidity 66    
Precipitation  
Precipitation 0.04 in - - ()
Sea Level Pressure  
Sea Level Pressure 29.92 in    
Wind  
Wind Speed 10 mph ()    
Max Wind Speed 16 mph    
Max Gust Speed -    
Visibility 6.1 miles    
Events Rain    
Averages and records for this station are not official NWS values.
T = Trace of Precipitation, MM = Missing Value Source: Averaged Metar Reports

Daily Weather History Graph

Daily Weather History Graph

Search for Another Location

Airport or City:

Trip Planner

Search our weather history database for the weather conditions in past years. The results will help you decide how hot, cold, wet, or windy it might be!

Date:

Astronomy

Aug. 23, 2013 Rise Set
Actual Time 6:04 AM BST 8:23 PM BST
Civil Twilight 5:26 AM BST 9:01 PM BST
Nautical Twilight 4:37 AM BST 9:50 PM BST
Astronomical Twilight 3:38 AM BST 10:47 PM BST
Moon 8:56 PM BST (8/23) 9:17 AM BST (8/23)
Length of Visible Light 15h 35m
Length of Day
14h 18m
Waning Gibbous, 93% of the Moon is Illuminated
Aug 23
Waning Gibbous
Aug 28
Last Quarter
Sep 5
New
Sep 12
First Quarter
Sep 19
Full

Hourly Weather History & Observations

Time (BST) Temp. Dew Point Humidity Pressure Visibility Wind Dir Wind Speed Gust Speed Precip Events Conditions
12:50 AM 60 °F 60 °F 100%  in - ESE 5.8 mph - -  
5:50 AM 60.8 °F 59.0 °F 94% 29.95 in 6.2 mi ESE 10.4 mph - N/A   Partly Cloudy
6:20 AM 62.6 °F 60.8 °F 94% 29.95 in 6.2 mi ESE 12.7 mph - N/A   Partly Cloudy
6:50 AM 62 °F 60 °F 91%  in - SE 12.7 mph - -  
6:50 AM 62.6 °F 60.8 °F 94% 29.95 in 6.2 mi ESE 13.8 mph - N/A   Partly Cloudy
7:20 AM 62.6 °F 60.8 °F 94% 29.95 in 6.2 mi ESE 13.8 mph - N/A   Partly Cloudy
7:50 AM 64.4 °F 60.8 °F 88% 29.95 in 6.2 mi ESE 16.1 mph - N/A   Partly Cloudy
8:20 AM 66.2 °F 60.8 °F 83% 29.95 in - SE 12.7 mph - N/A   Clear
8:50 AM 66.2 °F 60.8 °F 83% 29.95 in - ESE 12.7 mph - N/A   Clear
9:20 AM 66.2 °F 60.8 °F 83% 29.95 in - SE 12.7 mph - N/A   Clear
9:50 AM 67 °F 59 °F 69%  in - SE 15.0 mph - -  
9:50 AM 66.2 °F 60.8 °F 83% 29.92 in 6.2 mi ESE 15.0 mph - N/A   Partly Cloudy
10:20 AM 68.0 °F 60.8 °F 78% 29.92 in 6.2 mi SE 13.8 mph - N/A   Partly Cloudy
10:50 AM 68.0 °F 59.0 °F 73% 29.92 in 6.2 mi SE 13.8 mph - N/A   Partly Cloudy
11:20 AM 68.0 °F 60.8 °F 78% 29.92 in - SE 13.8 mph - N/A   Clear
11:50 AM 68.0 °F 60.8 °F 78% 29.92 in - SSE 13.8 mph - N/A   Clear
12:20 PM 68.0 °F 60.8 °F 78% 29.92 in 6.2 mi SSE 13.8 mph - N/A   Partly Cloudy
12:50 PM 69 °F 60 °F 66%  in - South 15.0 mph - -  
12:50 PM 69.8 °F 60.8 °F 73% 29.92 in 6.2 mi SSE 16.1 mph - N/A   Partly Cloudy
1:20 PM 71.6 °F 60.8 °F 69% 29.92 in 6.2 mi SSE 13.8 mph - N/A   Partly Cloudy
1:50 PM 71.6 °F 60.8 °F 69% 29.89 in 6.2 mi SE 15.0 mph - N/A   Partly Cloudy
2:20 PM 69.8 °F 60.8 °F 73% 29.92 in 6.2 mi SSE 15.0 mph - N/A   Partly Cloudy
2:50 PM 69.8 °F 60.8 °F 73% 29.92 in 6.2 mi South 15.0 mph - N/A   Partly Cloudy
3:20 PM 69.8 °F 60.8 °F 73% 29.92 in 6.2 mi South 11.5 mph - N/A   Partly Cloudy
3:50 PM 68 °F 62 °F 74%  in - SSW 8.1 mph - -  
3:50 PM 68.0 °F 62.6 °F 83% 29.92 in 6.2 mi SSW 6.9 mph - N/A Rain Light Rain Showers
4:20 PM 68.0 °F 62.6 °F 83% 29.92 in 6.2 mi SSW 5.8 mph - N/A   Partly Cloudy
4:50 PM 69.8 °F 62.6 °F 78% 29.89 in 6.2 mi SSW 5.8 mph - N/A   Partly Cloudy
5:20 PM 66.2 °F 60.8 °F 83% 29.89 in 6.2 mi WNW 5.8 mph - N/A   Partly Cloudy
5:50 PM 66.2 °F 60.8 °F 83% 29.89 in 6.2 mi NW 8.1 mph - N/A   Partly Cloudy
6:20 PM 66.2 °F 60.8 °F 83% 29.89 in 6.2 mi NNW 5.8 mph - N/A Rain Light Rain Showers
6:50 PM 66.2 °F 60.8 °F 83% 29.89 in 6.2 mi NW 5.8 mph - N/A   Partly Cloudy
7:20 PM 66.2 °F 59.0 °F 78% 29.89 in - North 5.8 mph - N/A   Clear
7:50 PM 64.4 °F 59.0 °F 83% 29.89 in - NNW 5.8 mph - N/A   Clear
8:50 PM 64.4 °F 59.0 °F 83% 29.89 in 5.6 mi NW 4.6 mph - N/A   Unknown
9:20 PM 64.4 °F 60.8 °F 88% 29.92 in 5.6 mi NW 5.8 mph - N/A   Unknown
9:50 PM 64.4 °F 60.8 °F 88% 29.92 in 5.6 mi NNW 5.8 mph - N/A   Unknown